Home   Weather   Lewiston   Past weeks

Flag for USA Past Weather in Lewiston, Idaho, USA — Yesterday and Last 2 Weeks

Now
62 °F

Sunny.


Feels Like: 62 °F
Forecast: 54 / 85 °F
Wind: 5 mph from Northeast

Location: Lewiston-Nez Perce County Airport

Current Time: Aug 20, 2017 at 8:36:44 am

Latest Report: Aug 20, 2017 at 7:56 am


Visibility: 10 mi

Pressure: 30.07 "Hg

Humidity: 52%

Dew Point: 44 °F

Location of LewistonLocation

Past Weather in Lewiston — Graph

°F

Lewiston Temperature Yesterday

Maximum temperature yesterday: 82 °F (at 2:56 pm)
Minimum temperature yesterday: 61 °F (at 5:56 am)
Average temperature yesterday: 74 °F

High & Low Weather Summary for the Past Weeks

 TemperatureHumidityPressure
High101 °F (Aug 11, 4:56 pm)84% (Aug 14, 3:56 am)30.06 "Hg (Aug 14, 3:56 am)
Low55 °F (Aug 15, 5:56 am)10% (Aug 6, 2:56 pm)29.71 "Hg (Aug 11, 6:56 pm)
Average77 °F35%29.89 "Hg
* Reported Aug 5 6:39 am — Aug 20 6:56 am, Lewiston. Weather by CustomWeather, © 2017

Note: Actual official high and low records may vary slightly from our data, if they occured in-between our weather recording intervals... More about our weather records

Advertising

Lewiston Weather History for the Previous 24 Hours

Scroll right to see more
 ConditionsComfort  
Time TempWeatherWind HumidityBarometerVisibility
6:56 am
Sun, Aug 20
57 °FSunny.3 mph58%30.06 "Hg10 mi
5:56 am57 °FSunny.3 mph53%30.05 "Hg10 mi
4:56 am58 °FClear.No wind54%30.04 "Hg10 mi
3:56 am58 °FClear.No wind54%30.03 "Hg10 mi
2:56 am61 °FClear.No wind48%30.03 "Hg10 mi
1:56 am62 °FClear.No wind46%30.03 "Hg10 mi
12:56 am62 °FClear.5 mph44%30.01 "Hg10 mi
11:56 pm
Sat, Aug 19
66 °FClear.5 mph40%30.01 "Hg10 mi
10:56 pm68 °FClear.6 mph38%30.00 "Hg10 mi
9:56 pm72 °FClear.5 mph30%29.99 "Hg10 mi
8:56 pm74 °FClear.6 mph27%29.98 "Hg10 mi
7:56 pm76 °FClear.5 mph27%29.98 "Hg10 mi
6:56 pm80 °FSunny.8 mph24%29.97 "Hg10 mi
5:56 pm81 °FSunny.9 mph25%29.98 "Hg10 mi
4:56 pm82 °FSunny.No wind24%29.98 "Hg10 mi
3:56 pm82 °FSunny.8 mph24%30.00 "Hg10 mi
2:56 pm82 °FSunny.12 mph24%30.01 "Hg10 mi
1:56 pm80 °FSunny.10 mph27%30.03 "Hg10 mi
12:56 pm81 °FSunny.12 mph26%30.03 "Hg10 mi
11:56 am79 °FSunny.16 mph30%30.03 "Hg10 mi
10:56 am77 °FSunny.12 mph32%30.04 "Hg10 mi
9:56 am77 °FScattered clouds.14 mph35%30.04 "Hg10 mi
8:56 am73 °FSunny.5 mph44%30.04 "Hg10 mi
Weather by CustomWeather, © 2017

See weather overviewHow to use our weather pages